Location: Palomar Mountain Lodge
(33.3110°N, 116.8495°W)
Time: 07:24:13
(UTC-07:00)

Cosmos 1378 - Pass Details

Date: 14 June 2018
Orbit: 493 x 505 km, 82.5° (Epoch: 19 September)

Event Time Altitude Azimuth Distance (km) Brightness Sun altitude
Exits shadow 20:57:09 13° 158° (SSE) 1,533 5.1 -11.1°
Maximum altitude 21:00:11 38° 92° (E) 775 3.7 -11.6°
Drops below altitude 10° 21:03:38 10° 24° (NNE) 1,694 6.0 -12.2°
Sets 21:05:50 0° 16° (NNE) 2,579 7.1 -12.6°
